| time (UTC) | temp C | wind direction | speed KPH | gust KPH | rain 1hr cm | rain 24hr cm | rain mn cm | humidity % | barometer mb |
| 20260902141522 | 17 | 360 | 12.9 | 0.0 | 0.00 | 0.00 | 0.00 | 69 | 1009.7 |
| 20260902141012 | 17 | 360 | 11.3 | 0.0 | 0.00 | 0.00 | 0.00 | 70 | 1009.6 |
| 20260902140511 | 17 | 360 | 11.3 | 0.0 | 0.00 | 0.00 | 0.00 | 70 | 1009.7 |
| 20260902140011 | 16 | 360 | 9.7 | 0.0 | 0.00 | 0.00 | 0.00 | 72 | 1009.7 |
| 20260902135507 | 16 | 360 | 9.7 | 0.0 | 0.00 | 0.00 | 0.00 | 73 | 1009.7 |
| 20260902135007 | 16 | 360 | 9.7 | 0.0 | 0.00 | 0.00 | 0.00 | 73 | 1009.8 |
| 20260902134506 | 16 | 360 | 8.0 | 0.0 | 0.00 | 0.00 | 0.00 | 74 | 1009.8 |
| 20260902134105 | 15 | 360 | 6.4 | 0.0 | 0.00 | 0.00 | 0.00 | 76 | 1009.7 |
| 20260902133505 | 15 | 360 | 6.4 | 0.0 | 0.00 | 0.00 | 0.00 | 76 | 1009.7 |
| 20260902133006 | 15 | 360 | 6.4 | 0.0 | 0.00 | 0.00 | 0.00 | 78 | 1009.7 |
| 20260902132509 | 15 | 360 | 4.8 | 0.0 | 0.00 | 0.00 | 0.00 | 80 | 1009.7 |
| 20260902132105 | 14 | 360 | 3.2 | 0.0 | 0.00 | 0.00 | 0.00 | 81 | 1009.8 |
| 20260902131505 | 13 | 360 | 3.2 | 0.0 | 0.00 | 0.00 | 0.00 | 81 | 1009.7 |
| 20260902131005 | 13 | 360 | 4.8 | 0.0 | 0.00 | 0.00 | 0.00 | 81 | 1009.8 |
| 20260902130505 | 13 | 360 | 3.2 | 0.0 | 0.00 | 0.00 | 0.00 | 82 | 1009.7 |
| 20260902130004 | 13 | 360 | 1.6 | 0.0 | 0.00 | 0.00 | 0.00 | 82 | 1009.8 |
| 20260902125506 | 12 | 360 | 3.2 | 0.0 | 0.00 | 0.00 | 0.00 | 82 | 1009.7 |
| 20260902125004 | 12 | 360 | 3.2 | 0.0 | 0.00 | 0.00 | 0.00 | 81 | 1009.6 |
| 20260902124514 | 13 | 360 | 3.2 | 0.0 | 0.00 | 0.00 | 0.00 | 81 | 1009.6 |
| 20260902124103 | 13 | 360 | 1.6 | 0.0 | 0.00 | 0.00 | 0.00 | 81 | 1009.8 |
| 20260902123503 | 13 | 360 | 1.6 | 0.0 | 0.00 | 0.00 | 0.00 | 80 | 1009.7 |
| 20260902123003 | 13 | 360 | 1.6 | 0.0 | 0.00 | 0.00 | 0.00 | 81 | 1009.7 |
| 20260902122503 | 13 | 360 | 3.2 | 0.0 | 0.00 | 0.00 | 0.00 | 81 | 1009.7 |
| 20260902122004 | 13 | 360 | 4.8 | 0.0 | 0.00 | 0.00 | 0.00 | 82 | 1009.6 |
| 20260902121502 | 13 | 360 | 4.8 | 0.0 | 0.00 | 0.00 | 0.00 | 83 | 1009.6 |
| 20260902121002 | 12 | 360 | 3.2 | 0.0 | 0.00 | 0.00 | 0.00 | 83 | 1009.6 |
| 20260902120502 | 12 | 360 | 0.0 | 0.0 | 0.00 | 0.00 | 0.00 | 84 | 1009.6 |
| 20260902120005 | 12 | 360 | 0.0 | 0.0 | 0.00 | 0.00 | 0.00 | 83 | 1009.4 |
| 20260902115501 | 12 | 360 | 1.6 | 0.0 | 0.00 | 0.00 | 0.00 | 83 | 1009.5 |
| 20260902115001 | 12 | 360 | 3.2 | 0.0 | 0.00 | 0.00 | 0.00 | 84 | 1009.6 |
| 20260902114600 | 12 | 360 | 3.2 | 0.0 | 0.00 | 0.00 | 0.00 | 83 | 1009.6 |
| 20260902114100 | 11 | 360 | 1.6 | 0.0 | 0.00 | 0.00 | 0.00 | 83 | 1009.7 |
| 20260902113559 | 11 | 360 | 1.6 | 0.0 | 0.00 | 0.00 | 0.00 | 83 | 1009.7 |
| 20260902113059 | 11 | 360 | 0.0 | 0.0 | 0.00 | 0.00 | 0.00 | 81 | 1009.8 |
| 20260902112558 | 11 | 360 | 0.0 | 0.0 | 0.00 | 0.00 | 0.00 | 81 | 1009.9 |
| 20260902112058 | 11 | 360 | 0.0 | 0.0 | 0.00 | 0.00 | 0.00 | 81 | 1009.8 |
| 20260902111559 | 11 | 360 | 0.0 | 0.0 | 0.00 | 0.00 | 0.00 | 81 | 1009.9 |
| 20260902111056 | 12 | 360 | 0.0 | 0.0 | 0.00 | 0.00 | 0.00 | 80 | 1010.0 |
| 20260902110555 | 12 | 360 | 0.0 | 0.0 | 0.00 | 0.00 | 0.00 | 79 | 1010.0 |
| 20260902110055 | 12 | 360 | 0.0 | 0.0 | 0.00 | 0.00 | 0.00 | 79 | 1010.0 |
| 20260902105554 | 12 | 360 | 0.0 | 0.0 | 0.00 | 0.00 | 0.00 | 79 | 1009.9 |
| 20260902105053 | 12 | 360 | 0.0 | 0.0 | 0.00 | 0.00 | 0.00 | 79 | 1010.0 |
| 20260902104553 | 12 | 360 | 0.0 | 0.0 | 0.00 | 0.00 | 0.00 | 79 | 1010.0 |
| 20260902104054 | 12 | 360 | 0.0 | 0.0 | 0.00 | 0.00 | 0.00 | 79 | 1010.1 |
| 20260902103552 | 12 | 360 | 0.0 | 0.0 | 0.00 | 0.00 | 0.00 | 79 | 1010.1 |
| 20260902103059 | 12 | 360 | 0.0 | 0.0 | 0.00 | 0.00 | 0.00 | 78 | 1010.0 |
| 20260902102551 | 12 | 360 | 0.0 | 0.0 | 0.00 | 0.00 | 0.00 | 77 | 1010.1 |
| 20260902102050 | 12 | 360 | 0.0 | 0.0 | 0.00 | 0.00 | 0.00 | 76 | 1010.1 |
| 20260902101555 | 13 | 360 | 1.6 | 0.0 | 0.00 | 0.00 | 0.00 | 76 | 1010.1 |
| 20260902101048 | 13 | 360 | 1.6 | 0.0 | 0.00 | 0.00 | 0.00 | 75 | 1010.1 |
| 20260902100547 | 13 | 360 | 1.6 | 0.0 | 0.00 | 0.00 | 0.00 | 73 | 1010.1 |
| 20260902100047 | 14 | 360 | 3.2 | 0.0 | 0.00 | 0.00 | 0.00 | 73 | 1010.0 |
| 20260902095546 | 14 | 360 | 4.8 | 0.0 | 0.00 | 0.00 | 0.00 | 74 | 1010.0 |
| 20260902095046 | 14 | 360 | 3.2 | 0.0 | 0.00 | 0.00 | 0.00 | 74 | 1010.2 |
| 20260902094546 | 14 | 360 | 4.8 | 0.0 | 0.00 | 0.00 | 0.00 | 74 | 1010.2 |
| 20260902094046 | 14 | 360 | 4.8 | 0.0 | 0.00 | 0.00 | 0.00 | 76 | 1010.2 |
| 20260902093545 | 14 | 360 | 4.8 | 0.0 | 0.00 | 0.00 | 0.00 | 76 | 1010.2 |
| 20260902093102 | 13 | 360 | 1.6 | 0.0 | 0.00 | 0.00 | 0.00 | 76 | 1010.1 |
| 20260902092545 | 13 | 360 | 0.0 | 0.0 | 0.00 | 0.00 | 0.00 | 73 | 1010.1 |
| 20260902092048 | 13 | 360 | 0.0 | 0.0 | 0.00 | 0.00 | 0.00 | 72 | 1010.3 |
| 20260902091551 | 14 | 360 | 0.0 | 0.0 | 0.00 | 0.00 | 0.00 | 72 | 1010.1 |
| 20260902091041 | 14 | 360 | 0.0 | 0.0 | 0.00 | 0.00 | 0.00 | 71 | 1010.1 |
| 20260902090540 | 15 | 360 | 0.0 | 0.0 | 0.00 | 0.00 | 0.00 | 71 | 1010.1 |
| 20260902090043 | 15 | 360 | 0.0 | 0.0 | 0.00 | 0.00 | 0.00 | 71 | 1010.1 |
| 20260902085539 | 15 | 360 | 0.0 | 0.0 | 0.00 | 0.00 | 0.00 | 71 | 1010.1 |
| 20260902085039 | 15 | 360 | 0.0 | 0.0 | 0.00 | 0.00 | 0.00 | 71 | 1010.2 |
| 20260902084548 | 15 | 360 | 0.0 | 0.0 | 0.00 | 0.00 | 0.00 | 70 | 1010.2 |
| 20260902084038 | 15 | 360 | 1.6 | 0.0 | 0.00 | 0.00 | 0.00 | 70 | 1010.3 |
| 20260902083538 | 15 | 360 | 1.6 | 0.0 | 0.00 | 0.00 | 0.00 | 70 | 1010.3 |
| 20260902083048 | 15 | 360 | 1.6 | 0.0 | 0.00 | 0.00 | 0.00 | 71 | 1010.3 |
| 20260902082537 | 15 | 360 | 1.6 | 0.0 | 0.00 | 0.00 | 0.00 | 72 | 1010.4 |
| 20260902082037 | 15 | 360 | 1.6 | 0.0 | 0.00 | 0.00 | 0.00 | 71 | 1010.4 |
| 20260902081540 | 15 | 360 | 1.6 | 0.0 | 0.00 | 0.00 | 0.00 | 71 | 1010.4 |
| 20260902081036 | 15 | 360 | 1.6 | 0.0 | 0.00 | 0.00 | 0.00 | 70 | 1010.4 |
| 20260902080535 | 15 | 360 | 3.2 | 0.0 | 0.00 | 0.00 | 0.00 | 70 | 1010.4 |
| 20260902080035 | 15 | 360 | 1.6 | 0.0 | 0.00 | 0.00 | 0.00 | 70 | 1010.5 |
| 20260902075533 | 15 | 360 | 0.0 | 0.0 | 0.00 | 0.00 | 0.00 | 69 | 1010.5 |
| 20260902075034 | 15 | 360 | 1.6 | 0.0 | 0.00 | 0.00 | 0.00 | 69 | 1010.5 |
| 20260902074534 | 15 | 360 | 1.6 | 0.0 | 0.00 | 0.00 | 0.00 | 69 | 1010.4 |
| 20260902074032 | 15 | 360 | 0.0 | 0.0 | 0.00 | 0.00 | 0.00 | 67 | 1010.5 |
| 20260902073532 | 15 | 360 | 1.6 | 0.0 | 0.00 | 0.00 | 0.00 | 67 | 1010.5 |
| 20260902073031 | 16 | 360 | 3.2 | 0.0 | 0.00 | 0.00 | 0.00 | 67 | 1010.5 |
| 20260902072531 | 16 | 360 | 3.2 | 0.0 | 0.00 | 0.00 | 0.00 | 67 | 1010.4 |
| 20260902072031 | 16 | 360 | 3.2 | 0.0 | 0.00 | 0.00 | 0.00 | 67 | 1010.5 |
| 20260902071535 | 16 | 360 | 1.6 | 0.0 | 0.00 | 0.00 | 0.00 | 67 | 1010.5 |
| 20260902071031 | 16 | 360 | 0.0 | 0.0 | 0.00 | 0.00 | 0.00 | 67 | 1010.5 |
| 20260902070531 | 16 | 360 | 0.0 | 0.0 | 0.00 | 0.00 | 0.00 | 66 | 1010.5 |
| 20260902070030 | 16 | 360 | 0.0 | 0.0 | 0.00 | 0.00 | 0.00 | 65 | 1010.5 |
| 20260902065531 | 16 | 360 | 1.6 | 0.0 | 0.00 | 0.00 | 0.00 | 65 | 1010.4 |
| 20260902065030 | 16 | 360 | 3.2 | 0.0 | 0.00 | 0.00 | 0.00 | 64 | 1010.5 |
| 20260902064531 | 17 | 360 | 3.2 | 0.0 | 0.00 | 0.00 | 0.00 | 64 | 1010.5 |
| 20260902064030 | 17 | 360 | 4.8 | 0.0 | 0.00 | 0.00 | 0.00 | 63 | 1010.6 |
| 20260902063532 | 17 | 360 | 4.8 | 0.0 | 0.00 | 0.00 | 0.00 | 63 | 1010.4 |
| 20260902063032 | 17 | 360 | 4.8 | 0.0 | 0.00 | 0.00 | 0.00 | 63 | 1010.5 |
| 20260902062530 | 17 | 360 | 3.2 | 0.0 | 0.00 | 0.00 | 0.00 | 63 | 1010.5 |
| 20260902062030 | 17 | 360 | 4.8 | 0.0 | 0.00 | 0.00 | 0.00 | 62 | 1010.5 |
| 20260902061542 | 17 | 360 | 4.8 | 0.0 | 0.00 | 0.00 | 0.00 | 61 | 1010.5 |
| 20260902061030 | 17 | 360 | 6.4 | 0.0 | 0.00 | 0.00 | 0.00 | 61 | 1010.5 |
| 20260902060530 | 18 | 360 | 4.8 | 0.0 | 0.00 | 0.00 | 0.00 | 61 | 1010.6 |
| 20260902060029 | 18 | 360 | 4.8 | 0.0 | 0.00 | 0.00 | 0.00 | 61 | 1010.6 |
| 20260902055532 | 18 | 360 | 4.8 | 0.0 | 0.00 | 0.00 | 0.00 | 61 | 1010.6 |
| 20260902055030 | 18 | 360 | 4.8 | 0.0 | 0.00 | 0.00 | 0.00 | 61 | 1010.7 |
| 20260902054533 | 18 | 360 | 3.2 | 0.0 | 0.00 | 0.00 | 0.00 | 61 | 1010.6 |
| 20260902054029 | 18 | 360 | 3.2 | 0.0 | 0.00 | 0.00 | 0.00 | 60 | 1010.7 |
| 20260902053531 | 18 | 360 | 3.2 | 0.0 | 0.00 | 0.00 | 0.00 | 60 | 1010.7 |
| 20260902053030 | 18 | 360 | 4.8 | 0.0 | 0.00 | 0.00 | 0.00 | 60 | 1010.7 |
| 20260902052533 | 18 | 360 | 4.8 | 0.0 | 0.00 | 0.00 | 0.00 | 61 | 1010.7 |
| 20260902052030 | 18 | 360 | 4.8 | 0.0 | 0.00 | 0.00 | 0.00 | 61 | 1010.7 |
| 20260902051530 | 18 | 360 | 3.2 | 0.0 | 0.00 | 0.00 | 0.00 | 61 | 1010.8 |
| 20260902051030 | 18 | 360 | 3.2 | 0.0 | 0.00 | 0.00 | 0.00 | 60 | 1010.8 |
| 20260902050533 | 18 | 360 | 1.6 | 0.0 | 0.00 | 0.00 | 0.00 | 60 | 1010.8 |
| 20260902050032 | 18 | 360 | 3.2 | 0.0 | 0.00 | 0.00 | 0.00 | 59 | 1010.8 |
| 20260902045529 | 18 | 360 | 4.8 | 0.0 | 0.00 | 0.00 | 0.00 | 59 | 1010.8 |
| 20260902045029 | 18 | 360 | 3.2 | 0.0 | 0.00 | 0.00 | 0.00 | 59 | 1010.8 |
| 20260902044529 | 18 | 360 | 3.2 | 0.0 | 0.00 | 0.00 | 0.00 | 58 | 1010.8 |
| 20260902044030 | 19 | 360 | 3.2 | 0.0 | 0.00 | 0.00 | 0.00 | 57 | 1010.8 |
| 20260902043529 | 19 | 360 | 3.2 | 0.0 | 0.00 | 0.00 | 0.00 | 57 | 1010.8 |
| 20260902043029 | 19 | 360 | 4.8 | 0.0 | 0.00 | 0.00 | 0.00 | 57 | 1010.8 |
| 20260902042529 | 19 | 360 | 4.8 | 0.0 | 0.00 | 0.00 | 0.00 | 57 | 1010.9 |
| 20260902042031 | 19 | 360 | 4.8 | 0.0 | 0.00 | 0.00 | 0.00 | 58 | 1010.9 |
| 20260902041529 | 19 | 360 | 6.4 | 0.0 | 0.00 | 0.00 | 0.00 | 58 | 1010.8 |
| 20260902041035 | 19 | 360 | 6.4 | 0.0 | 0.00 | 0.00 | 0.00 | 59 | 1010.8 |
| 20260902040528 | 19 | 360 | 6.4 | 0.0 | 0.00 | 0.00 | 0.00 | 59 | 1010.7 |
| 20260902040028 | 19 | 360 | 8.0 | 0.0 | 0.00 | 0.00 | 0.00 | 59 | 1010.8 |
| 20260902035527 | 19 | 360 | 8.0 | 0.0 | 0.00 | 0.00 | 0.00 | 59 | 1010.7 |
| 20260902035028 | 19 | 360 | 8.0 | 0.0 | 0.00 | 0.00 | 0.00 | 59 | 1010.7 |
| 20260902034531 | 19 | 360 | 8.0 | 0.0 | 0.00 | 0.00 | 0.00 | 59 | 1010.8 |
| 20260902034027 | 19 | 360 | 8.0 | 0.0 | 0.00 | 0.00 | 0.00 | 59 | 1010.7 |
| 20260902033528 | 19 | 360 | 8.0 | 0.0 | 0.00 | 0.00 | 0.00 | 59 | 1010.7 |
| 20260902033028 | 19 | 360 | 8.0 | 0.0 | 0.00 | 0.00 | 0.00 | 58 | 1010.7 |
| 20260902032530 | 20 | 360 | 8.0 | 0.0 | 0.00 | 0.00 | 0.00 | 58 | 1010.7 |
| 20260902032028 | 20 | 360 | 9.7 | 0.0 | 0.00 | 0.00 | 0.00 | 57 | 1010.6 |
| 20260902031528 | 20 | 360 | 9.7 | 0.0 | 0.00 | 0.00 | 0.00 | 57 | 1010.6 |
| 20260902031029 | 20 | 360 | 9.7 | 0.0 | 0.00 | 0.00 | 0.00 | 56 | 1010.6 |
| 20260902030530 | 20 | 360 | 9.7 | 0.0 | 0.00 | 0.00 | 0.00 | 56 | 1010.6 |
| 20260902030028 | 20 | 360 | 9.7 | 0.0 | 0.00 | 0.00 | 0.00 | 56 | 1010.6 |
| 20260902025528 | 20 | 360 | 9.7 | 0.0 | 0.00 | 0.00 | 0.00 | 56 | 1010.5 |
| 20260902025028 | 20 | 360 | 9.7 | 0.0 | 0.00 | 0.00 | 0.00 | 56 | 1010.6 |
| 20260902024527 | 20 | 360 | 9.7 | 0.0 | 0.00 | 0.00 | 0.00 | 56 | 1010.7 |
| 20260902024027 | 20 | 360 | 11.3 | 0.0 | 0.00 | 0.00 | 0.00 | 55 | 1010.6 |
| 20260902023526 | 20 | 360 | 11.3 | 0.0 | 0.00 | 0.00 | 0.00 | 55 | 1010.5 |
| 20260902023027 | 20 | 360 | 11.3 | 0.0 | 0.00 | 0.00 | 0.00 | 54 | 1010.5 |
| 20260902022527 | 20 | 360 | 11.3 | 0.0 | 0.00 | 0.00 | 0.00 | 54 | 1010.5 |
| 20260902022029 | 21 | 360 | 11.3 | 0.0 | 0.00 | 0.00 | 0.00 | 53 | 1010.5 |
| 20260902021543 | 21 | 360 | 11.3 | 0.0 | 0.00 | 0.00 | 0.00 | 53 | 1010.5 |
| 20260902021029 | 21 | 360 | 11.3 | 0.0 | 0.00 | 0.00 | 0.00 | 52 | 1010.5 |
| 20260902020527 | 21 | 360 | 11.3 | 0.0 | 0.00 | 0.00 | 0.00 | 52 | 1010.5 |
| 20260902020025 | 21 | 360 | 12.9 | 0.0 | 0.00 | 0.00 | 0.00 | 51 | 1010.3 |
| 20260902015526 | 21 | 360 | 12.9 | 0.0 | 0.00 | 0.00 | 0.00 | 50 | 1010.4 |
| 20260902015026 | 21 | 360 | 12.9 | 0.0 | 0.00 | 0.00 | 0.00 | 49 | 1010.4 |
| 20260902014536 | 22 | 360 | 12.9 | 0.0 | 0.00 | 0.00 | 0.00 | 48 | 1010.3 |
| 20260902014026 | 22 | 360 | 12.9 | 0.0 | 0.00 | 0.00 | 0.00 | 47 | 1010.4 |
| 20260902013525 | 22 | 360 | 12.9 | 0.0 | 0.00 | 0.00 | 0.00 | 47 | 1010.4 |
| 20260902013026 | 22 | 360 | 12.9 | 0.0 | 0.00 | 0.00 | 0.00 | 46 | 1010.4 |
| 20260902012525 | 22 | 360 | 12.9 | 0.0 | 0.00 | 0.00 | 0.00 | 45 | 1010.5 |
| 20260902012025 | 22 | 360 | 14.5 | 0.0 | 0.00 | 0.00 | 0.00 | 45 | 1010.4 |
| 20260902011528 | 22 | 360 | 12.9 | 0.0 | 0.00 | 0.00 | 0.00 | 44 | 1010.4 |
| 20260902011025 | 22 | 360 | 12.9 | 0.0 | 0.00 | 0.00 | 0.00 | 45 | 1010.4 |
| 20260902010524 | 23 | 360 | 12.9 | 0.0 | 0.00 | 0.00 | 0.00 | 45 | 1010.4 |
| 20260902010024 | 23 | 82 | 14.5 | 0.0 | 0.00 | 0.00 | 0.00 | 44 | 1010.5 |
| 20260902005524 | 23 | 360 | 14.5 | 0.0 | 0.00 | 0.00 | 0.00 | 43 | 1010.5 |
| 20260902005024 | 23 | 360 | 14.5 | 0.0 | 0.00 | 0.00 | 0.00 | 42 | 1010.5 |
| 20260902004527 | 23 | 360 | 12.9 | 0.0 | 0.00 | 0.00 | 0.00 | 42 | 1010.5 |
| 20260902004022 | 23 | 360 | 12.9 | 0.0 | 0.00 | 0.00 | 0.00 | 42 | 1010.5 |
| 20260902003523 | 23 | 360 | 12.9 | 0.0 | 0.00 | 0.00 | 0.00 | 42 | 1010.5 |
| 20260902003028 | 23 | 82 | 14.5 | 0.0 | 0.00 | 0.00 | 0.00 | 42 | 1010.6 |
| 20260902002522 | 23 | 82 | 14.5 | 0.0 | 0.00 | 0.00 | 0.00 | 41 | 1010.6 |
| 20260902002022 | 24 | 78 | 12.9 | 0.0 | 0.00 | 0.00 | 0.00 | 41 | 1010.5 |
| 20260902001522 | 24 | 73 | 12.9 | 0.0 | 0.00 | 0.00 | 0.00 | 41 | 1010.6 |
| 20260902001025 | 24 | 360 | 12.9 | 0.0 | 0.00 | 0.00 | 0.00 | 41 | 1010.5 |
| 20260902000526 | 24 | 360 | 12.9 | 0.0 | 0.00 | 0.00 | 0.00 | 41 | 1010.6 |
| 20260902000022 | 24 | 360 | 12.9 | 0.0 | 0.00 | 0.00 | 0.00 | 41 | 1010.6 |
| 20260901235521 | 24 | 360 | 14.5 | 0.0 | 0.00 | 0.00 | 0.00 | 40 | 1010.6 |
| 20260901235021 | 25 | 360 | 14.5 | 0.0 | 0.00 | 0.00 | 0.00 | 39 | 1010.6 |
| 20260901234521 | 25 | 360 | 14.5 | 0.0 | 0.00 | 0.00 | 0.00 | 39 | 1010.6 |
| 20260901234021 | 25 | 360 | 14.5 | 0.0 | 0.00 | 0.00 | 0.00 | 39 | 1010.6 |
| 20260901233520 | 25 | 360 | 14.5 | 0.0 | 0.00 | 0.00 | 0.00 | 39 | 1010.6 |
| 20260901233019 | 25 | 360 | 12.9 | 0.0 | 0.00 | 0.00 | 0.00 | 38 | 1010.5 |
| 20260901232519 | 25 | 360 | 14.5 | 0.0 | 0.00 | 0.00 | 0.00 | 38 | 1010.5 |
| 20260901232020 | 25 | 360 | 14.5 | 0.0 | 0.00 | 0.00 | 0.00 | 38 | 1010.5 |
| 20260901231521 | 25 | 360 | 14.5 | 0.0 | 0.00 | 0.00 | 0.00 | 37 | 1010.5 |
| 20260901231022 | 25 | 360 | 14.5 | 0.0 | 0.00 | 0.00 | 0.00 | 37 | 1010.6 |
| 20260901230519 | 25 | 360 | 14.5 | 0.0 | 0.00 | 0.00 | 0.00 | 37 | 1010.5 |
| 20260901230019 | 25 | 360 | 14.5 | 0.0 | 0.00 | 0.00 | 0.00 | 37 | 1010.6 |
| 20260901225518 | 25 | 360 | 16.1 | 0.0 | 0.00 | 0.00 | 0.00 | 38 | 1010.6 |
| 20260901225017 | 25 | 360 | 14.5 | 0.0 | 0.00 | 0.00 | 0.00 | 37 | 1010.7 |
| 20260901224522 | 25 | 360 | 16.1 | 0.0 | 0.00 | 0.00 | 0.00 | 38 | 1010.7 |
| 20260901224016 | 26 | 360 | 16.1 | 0.0 | 0.00 | 0.00 | 0.00 | 38 | 1010.8 |
| 20260901223518 | 26 | 360 | 16.1 | 0.0 | 0.00 | 0.00 | 0.00 | 38 | 1010.8 |
| 20260901223024 | 25 | 360 | 17.7 | 0.0 | 0.00 | 0.00 | 0.00 | 38 | 1010.8 |
| 20260901222517 | 26 | 360 | 16.1 | 0.0 | 0.00 | 0.00 | 0.00 | 38 | 1010.9 |
| 20260901222019 | 26 | 360 | 16.1 | 0.0 | 0.00 | 0.00 | 0.00 | 39 | 1010.9 |
| 20260901221516 | 26 | 360 | 16.1 | 0.0 | 0.00 | 0.00 | 0.00 | 39 | 1011.1 |
| 20260901221015 | 26 | 360 | 14.5 | 0.0 | 0.00 | 0.00 | 0.00 | 38 | 1011.1 |
| 20260901220514 | 26 | 360 | 14.5 | 0.0 | 0.00 | 0.00 | 0.00 | 38 | 1011.2 |
| 20260901220027 | 26 | 360 | 12.9 | 0.0 | 0.00 | 0.00 | 0.00 | 38 | 1011.3 |
| 20260901215514 | 26 | 360 | 14.5 | 0.0 | 0.00 | 0.00 | 0.00 | 39 | 1011.3 |
| 20260901215013 | 26 | 360 | 14.5 | 0.0 | 0.00 | 0.00 | 0.00 | 39 | 1011.4 |
| 20260901214512 | 26 | 360 | 12.9 | 0.0 | 0.00 | 0.00 | 0.00 | 38 | 1011.5 |
| 20260901214011 | 26 | 360 | 12.9 | 0.0 | 0.00 | 0.00 | 0.00 | 38 | 1011.5 |
| 20260901213512 | 26 | 360 | 12.9 | 0.0 | 0.00 | 0.00 | 0.00 | 37 | 1011.6 |
| 20260901213013 | 26 | 360 | 12.9 | 0.0 | 0.00 | 0.00 | 0.00 | 38 | 1011.6 |
| 20260901212512 | 26 | 360 | 11.3 | 0.0 | 0.00 | 0.00 | 0.00 | 38 | 1011.6 |
| 20260901212011 | 26 | 360 | 12.9 | 0.0 | 0.00 | 0.00 | 0.00 | 38 | 1011.7 |
| 20260901211510 | 26 | 360 | 11.3 | 0.0 | 0.00 | 0.00 | 0.00 | 37 | 1011.7 |
| 20260901211010 | 26 | 360 | 11.3 | 0.0 | 0.00 | 0.00 | 0.00 | 37 | 1011.7 |
| 20260901210510 | 26 | 360 | 11.3 | 0.0 | 0.00 | 0.00 | 0.00 | 38 | 1011.6 |
| 20260901210012 | 26 | 360 | 11.3 | 0.0 | 0.00 | 0.00 | 0.00 | 37 | 1011.6 |
| 20260901205510 | 26 | 360 | 11.3 | 0.0 | 0.00 | 0.00 | 0.00 | 37 | 1011.7 |
| 20260901205008 | 26 | 360 | 9.7 | 0.0 | 0.00 | 0.00 | 0.00 | 37 | 1011.8 |
| 20260901204508 | 26 | 360 | 9.7 | 0.0 | 0.00 | 0.00 | 0.00 | 37 | 1011.9 |
| 20260901204111 | 26 | 360 | 9.7 | 0.0 | 0.00 | 0.00 | 0.00 | 37 | 1011.9 |
| 20260901203507 | 26 | 360 | 9.7 | 0.0 | 0.00 | 0.00 | 0.00 | 36 | 1012.0 |
| 20260901203008 | 26 | 360 | 8.0 | 0.0 | 0.00 | 0.00 | 0.00 | 37 | 1012.0 |
| 20260901202506 | 26 | 360 | 8.0 | 0.0 | 0.00 | 0.00 | 0.00 | 36 | 1012.1 |
| 20260901202007 | 26 | 360 | 8.0 | 0.0 | 0.00 | 0.00 | 0.00 | 36 | 1012.1 |
| 20260901201505 | 26 | 360 | 8.0 | 0.0 | 0.00 | 0.00 | 0.00 | 37 | 1012.1 |
| 20260901201005 | 26 | 360 | 8.0 | 0.0 | 0.00 | 0.00 | 0.00 | 36 | 1012.2 |
| 20260901200506 | 26 | 360 | 8.0 | 0.0 | 0.00 | 0.00 | 0.00 | 37 | 1012.3 |
| 20260901200004 | 26 | 360 | 8.0 | 0.0 | 0.00 | 0.00 | 0.00 | 36 | 1012.4 |
| 20260901195503 | 26 | 360 | 9.7 | 0.0 | 0.00 | 0.00 | 0.00 | 36 | 1012.5 |
| 20260901195002 | 26 | 360 | 8.0 | 0.0 | 0.00 | 0.00 | 0.00 | 37 | 1012.5 |
| 20260901194504 | 26 | 360 | 8.0 | 0.0 | 0.00 | 0.00 | 0.00 | 38 | 1012.6 |
| 20260901194002 | 26 | 360 | 8.0 | 0.0 | 0.00 | 0.00 | 0.00 | 38 | 1012.6 |
| 20260901193502 | 26 | 360 | 6.4 | 0.0 | 0.00 | 0.00 | 0.00 | 38 | 1012.6 |
| 20260901193003 | 26 | 360 | 6.4 | 0.0 | 0.00 | 0.00 | 0.00 | 37 | 1012.8 |
| 20260901192600 | 26 | 360 | 6.4 | 0.0 | 0.00 | 0.00 | 0.00 | 36 | 1012.8 |
| 20260901192100 | 26 | 360 | 6.4 | 0.0 | 0.00 | 0.00 | 0.00 | 36 | 1012.9 |
| 20260901191600 | 26 | 360 | 8.0 | 0.0 | 0.00 | 0.00 | 0.00 | 36 | 1013.0 |
| 20260901191058 | 26 | 360 | 8.0 | 0.0 | 0.00 | 0.00 | 0.00 | 38 | 1013.0 |
| 20260901190558 | 25 | 360 | 8.0 | 0.0 | 0.00 | 0.00 | 0.00 | 38 | 1013.0 |
| 20260901190108 | 25 | 360 | 8.0 | 0.0 | 0.00 | 0.00 | 0.00 | 38 | 1013.1 |
| 20260901185558 | 25 | 360 | 8.0 | 0.0 | 0.00 | 0.00 | 0.00 | 37 | 1013.2 |
| 20260901185057 | 25 | 360 | 9.7 | 0.0 | 0.00 | 0.00 | 0.00 | 37 | 1013.3 |
| 20260901184558 | 25 | 360 | 9.7 | 0.0 | 0.00 | 0.00 | 0.00 | 37 | 1013.3 |
| 20260901184057 | 25 | 360 | 8.0 | 0.0 | 0.00 | 0.00 | 0.00 | 37 | 1013.3 |
| 20260901183056 | 25 | 360 | 8.0 | 0.0 | 0.00 | 0.00 | 0.00 | 37 | 1013.3 |
| 20260901182556 | 25 | 360 | 8.0 | 0.0 | 0.00 | 0.00 | 0.00 | 37 | 1013.4 |
| 20260901182056 | 25 | 360 | 9.7 | 0.0 | 0.00 | 0.00 | 0.00 | 37 | 1013.5 |
| 20260901181601 | 25 | 113 | 9.7 | 0.0 | 0.00 | 0.00 | 0.00 | 37 | 1013.6 |
| 20260901181054 | 25 | 90 | 9.7 | 0.0 | 0.00 | 0.00 | 0.00 | 37 | 1013.7 |
| 20260901180554 | 24 | 111 | 11.3 | 0.0 | 0.00 | 0.00 | 0.00 | 37 | 1013.8 |
| 20260901180053 | 24 | 115 | 9.7 | 0.0 | 0.00 | 0.00 | 0.00 | 37 | 1013.8 |
| 20260901175553 | 25 | 115 | 8.0 | 0.0 | 0.00 | 0.00 | 0.00 | 37 | 1013.8 |
| 20260901175053 | 25 | 110 | 6.4 | 0.0 | 0.00 | 0.00 | 0.00 | 37 | 1013.8 |
| 20260901174553 | 25 | 113 | 6.4 | 0.0 | 0.00 | 0.00 | 0.00 | 36 | 1013.8 |
| 20260901174053 | 25 | 79 | 6.4 | 0.0 | 0.00 | 0.00 | 0.00 | 37 | 1013.8 |
| 20260901173052 | 24 | 78 | 8.0 | 0.0 | 0.00 | 0.00 | 0.00 | 37 | 1013.8 |
| 20260901172551 | 24 | 86 | 9.7 | 0.0 | 0.00 | 0.00 | 0.00 | 38 | 1013.9 |
| 20260901172050 | 24 | 360 | 9.7 | 0.0 | 0.00 | 0.00 | 0.00 | 39 | 1013.9 |
| 20260901171605 | 23 | 84 | 8.0 | 0.0 | 0.00 | 0.00 | 0.00 | 40 | 1013.9 |
| 20260901171048 | 23 | 87 | 8.0 | 0.0 | 0.00 | 0.00 | 0.00 | 40 | 1013.8 |
| 20260901170549 | 23 | 107 | 6.4 | 0.0 | 0.00 | 0.00 | 0.00 | 40 | 1013.9 |
| 20260901170055 | 23 | 107 | 8.0 | 0.0 | 0.00 | 0.00 | 0.00 | 39 | 1014.0 |
| 20260901165550 | 23 | 105 | 8.0 | 0.0 | 0.00 | 0.00 | 0.00 | 42 | 1014.0 |
| 20260901165047 | 23 | 107 | 6.4 | 0.0 | 0.00 | 0.00 | 0.00 | 41 | 1014.1 |
| 20260901164551 | 23 | 92 | 6.4 | 0.0 | 0.00 | 0.00 | 0.00 | 42 | 1014.0 |
| 20260901164044 | 23 | 360 | 4.8 | 0.0 | 0.00 | 0.00 | 0.00 | 44 | 1014.0 |
| 20260901163042 | 22 | 134 | 4.8 | 0.0 | 0.00 | 0.00 | 0.00 | 47 | 1014.1 |
| 20260901162544 | 22 | 130 | 4.8 | 0.0 | 0.00 | 0.00 | 0.00 | 47 | 1014.1 |
| 20260901162039 | 22 | 360 | 4.8 | 0.0 | 0.00 | 0.00 | 0.00 | 50 | 1014.1 |
| 20260901161540 | 21 | 360 | 4.8 | 0.0 | 0.00 | 0.00 | 0.00 | 50 | 1014.2 |
| 20260901161036 | 21 | 360 | 4.8 | 0.0 | 0.00 | 0.00 | 0.00 | 52 | 1014.2 |
| 20260901160536 | 21 | 135 | 4.8 | 0.0 | 0.00 | 0.00 | 0.00 | 54 | 1014.2 |
| 20260901160038 | 21 | 134 | 4.8 | 0.0 | 0.00 | 0.00 | 0.00 | 54 | 1014.2 |
| 20260901155532 | 20 | 360 | 4.8 | 0.0 | 0.00 | 0.00 | 0.00 | 56 | 1014.1 |
| 20260901155032 | 20 | 360 | 4.8 | 0.0 | 0.00 | 0.00 | 0.00 | 56 | 1014.2 |
| 20260901154529 | 20 | 360 | 4.8 | 0.0 | 0.00 | 0.00 | 0.00 | 57 | 1014.2 |
| 20260901154028 | 19 | 161 | 6.4 | 0.0 | 0.00 | 0.00 | 0.00 | 58 | 1014.3 |
| 20260901153028 | 18 | 360 | 4.8 | 0.0 | 0.00 | 0.00 | 0.00 | 57 | 1014.4 |
| 20260901152526 | 18 | 360 | 4.8 | 0.0 | 0.00 | 0.00 | 0.00 | 59 | 1014.3 |
| 20260901152025 | 18 | 360 | 3.2 | 0.0 | 0.00 | 0.00 | 0.00 | 60 | 1014.4 |
| 20260901151523 | 18 | 360 | 3.2 | 0.0 | 0.00 | 0.00 | 0.00 | 62 | 1014.5 |
| 20260901151025 | 17 | 360 | 3.2 | 0.0 | 0.00 | 0.00 | 0.00 | 62 | 1014.5 |
| 20260901150522 | 17 | 360 | 1.6 | 0.0 | 0.00 | 0.00 | 0.00 | 62 | 1014.5 |
| 20260901150021 | 17 | 360 | 1.6 | 0.0 | 0.00 | 0.00 | 0.00 | 63 | 1014.5 |
| 20260901145520 | 17 | 360 | 1.6 | 0.0 | 0.00 | 0.00 | 0.00 | 63 | 1014.5 |
| 20260901145019 | 17 | 360 | 1.6 | 0.0 | 0.00 | 0.00 | 0.00 | 64 | 1014.5 |
| 20260901144517 | 16 | 360 | 1.6 | 0.0 | 0.00 | 0.00 | 0.00 | 65 | 1014.4 |
| 20260901144017 | 16 | 360 | 1.6 | 0.0 | 0.00 | 0.00 | 0.00 | 68 | 1014.6 |
| 20260901143014 | 15 | 322 | 1.6 | 0.0 | 0.00 | 0.00 | 0.00 | 71 | 1014.5 |
| 20260901142514 | 15 | 322 | 1.6 | 0.0 | 0.00 | 0.00 | 0.00 | 73 | 1014.6 |
| 20260901142012 | 14 | 322 | 0.0 | 0.0 | 0.00 | 0.00 | 0.00 | 74 | 1014.7 |